| time (UTC) | temp F | wind direction | speed MPH | gust MPH | rain 1hr in | rain 24hr in | rain mn in | humidity % | barometer mb |
| 20260504183044 | 77 | 138 | 4.0 | 10.0 | 0.00 | 0.00 | 0.00 | 58 | 1009.0 |
| 20260504181541 | 78 | 262 | 3.0 | 7.0 | 0.00 | 0.00 | 0.00 | 58 | 1009.2 |
| 20260504180039 | 77 | 298 | 3.0 | 9.0 | 0.00 | 0.00 | 0.00 | 59 | 1009.4 |
| 20260504174536 | 77 | 185 | 3.0 | 10.0 | 0.00 | 0.00 | 0.00 | 58 | 1009.8 |
| 20260504173033 | 76 | 238 | 1.0 | 9.0 | 0.00 | 0.00 | 0.00 | 61 | 1009.8 |
| 20260504171543 | 75 | 302 | 2.0 | 12.0 | 0.00 | 0.00 | 0.00 | 60 | 1010.2 |
| 20260504090112 | 63 | 293 | 1.0 | 5.0 | 0.00 | 0.00 | 0.00 | 69 | 1012.3 |
| 20260504081553 | 64 | 214 | 0.0 | 6.0 | 0.00 | 0.00 | 0.00 | 66 | 1012.5 |
| 20260504050021 | 67 | 231 | 0.0 | 3.0 | 0.00 | 0.00 | 0.00 | 55 | 1014.6 |
| 20260504044524 | 68 | 291 | 0.0 | 2.0 | 0.00 | 0.00 | 0.00 | 53 | 1014.5 |
| 20260504043032 | 68 | 273 | 1.0 | 5.0 | 0.00 | 0.00 | 0.00 | 52 | 1014.7 |
| 20260504041522 | 68 | 294 | 0.0 | 5.0 | 0.00 | 0.00 | 0.00 | 52 | 1014.8 |
| 20260504040023 | 69 | 123 | 0.0 | 4.0 | 0.00 | 0.00 | 0.00 | 52 | 1014.8 |
| 20260504034518 | 69 | 214 | 0.0 | 4.0 | 0.00 | 0.00 | 0.00 | 52 | 1014.6 |
| 20260504033019 | 69 | 221 | 0.0 | 4.0 | 0.00 | 0.00 | 0.00 | 52 | 1014.7 |
| 20260504031517 | 69 | 214 | 0.0 | 1.0 | 0.00 | 0.00 | 0.00 | 51 | 1014.7 |
| 20260504030017 | 70 | 243 | 0.0 | 2.0 | 0.00 | 0.00 | 0.00 | 49 | 1014.5 |
| 20260504024517 | 71 | 215 | 0.0 | 3.0 | 0.00 | 0.00 | 0.00 | 47 | 1014.5 |
| 20260504023019 | 71 | 221 | 0.0 | 3.0 | 0.00 | 0.00 | 0.00 | 45 | 1014.3 |
| 20260504021515 | 72 | 261 | 0.0 | 3.0 | 0.00 | 0.00 | 0.00 | 44 | 1014.4 |
| 20260504020014 | 73 | 77 | 1.0 | 6.0 | 0.00 | 0.00 | 0.00 | 42 | 1014.4 |
| 20260504014514 | 73 | 205 | 1.0 | 7.0 | 0.00 | 0.00 | 0.00 | 41 | 1014.3 |
| 20260504013017 | 74 | 289 | 0.0 | 7.0 | 0.00 | 0.00 | 0.00 | 40 | 1014.2 |
| 20260504011519 | 74 | 155 | 2.0 | 7.0 | 0.00 | 0.00 | 0.00 | 39 | 1014.0 |
| 20260504010011 | 75 | 284 | 1.0 | 7.0 | 0.00 | 0.00 | 0.00 | 39 | 1013.9 |
| 20260504004511 | 75 | 277 | 0.0 | 5.0 | 0.00 | 0.00 | 0.00 | 38 | 1013.9 |
| 20260504003009 | 76 | 167 | 3.0 | 10.0 | 0.00 | 0.00 | 0.00 | 36 | 1014.0 |
| 20260504001508 | 77 | 275 | 1.0 | 8.0 | 0.00 | 0.00 | 0.00 | 37 | 1014.2 |
| 20260504000007 | 77 | 293 | 1.0 | 9.0 | 0.00 | 0.00 | 0.00 | 35 | 1014.1 |
| 20260503234506 | 78 | 172 | 2.0 | 9.0 | 0.00 | 0.00 | 0.00 | 35 | 1014.2 |
| 20260503233003 | 78 | 93 | 2.0 | 6.0 | 0.00 | 0.00 | 0.00 | 35 | 1014.4 |
| 20260503231502 | 78 | 139 | 3.0 | 10.0 | 0.00 | 0.00 | 0.00 | 35 | 1014.5 |
| 20260503230002 | 78 | 266 | 1.0 | 6.0 | 0.00 | 0.00 | 0.00 | 35 | 1014.5 |
| 20260503224600 | 79 | 253 | 1.0 | 7.0 | 0.00 | 0.00 | 0.00 | 34 | 1014.6 |
| 20260503224501 | 79 | 298 | 1.0 | 8.0 | 0.00 | 0.00 | 0.00 | 34 | 1014.6 |
| 20260503223059 | 79 | 262 | 1.0 | 11.0 | 0.00 | 0.00 | 0.00 | 35 | 1014.6 |
| 20260503221556 | 79 | 295 | 3.0 | 8.0 | 0.00 | 0.00 | 0.00 | 33 | 1014.8 |
| 20260503214551 | 81 | 179 | 2.0 | 8.0 | 0.00 | 0.00 | 0.00 | 31 | 1015.2 |
| 20260503213053 | 81 | 297 | 3.0 | 8.0 | 0.00 | 0.00 | 0.00 | 31 | 1015.4 |
| 20260503211549 | 81 | 174 | 0.0 | 8.0 | 0.00 | 0.00 | 0.00 | 32 | 1015.5 |
| 20260503210046 | 81 | 277 | 3.0 | 9.0 | 0.00 | 0.00 | 0.00 | 31 | 1015.8 |
| 20260503204544 | 81 | 264 | 2.0 | 10.0 | 0.00 | 0.00 | 0.00 | 30 | 1016.3 |
| 20260503203049 | 81 | 73 | 1.0 | 5.0 | 0.00 | 0.00 | 0.00 | 32 | 1016.6 |
| 20260503201544 | 81 | 240 | 2.0 | 10.0 | 0.00 | 0.00 | 0.00 | 32 | 1016.7 |
| 20260503200039 | 82 | 231 | 3.0 | 9.0 | 0.00 | 0.00 | 0.00 | 32 | 1016.9 |
| 20260503194536 | 82 | 288 | 1.0 | 6.0 | 0.00 | 0.00 | 0.00 | 34 | 1017.2 |
| 20260503193037 | 81 | 308 | 2.0 | 5.0 | 0.00 | 0.00 | 0.00 | 33 | 1017.5 |
| 20260503191537 | 82 | 221 | 1.0 | 6.0 | 0.00 | 0.00 | 0.00 | 34 | 1017.7 |
| 20260503190034 | 81 | 245 | 0.0 | 7.0 | 0.00 | 0.00 | 0.00 | 37 | 1017.9 |
| 20260503184527 | 82 | 346 | 1.0 | 4.0 | 0.00 | 0.00 | 0.00 | 34 | 1018.3 |